Location: Gradaro
(45.0833°N, 10.8833°E)
Time: 15:14:57
(UTC+00:00)

CZ-4C R/B - Pass Details

Date: 29 November 2020
Orbit: 620 x 1382 km, 63.4° (Epoch: 22 January)

Event Time Altitude Azimuth Distance (km) Brightness Sun altitude
Exits shadow 03:25:52 21° 149° (SSE) 1,569 3.8 -32.3°
Maximum altitude 03:27:52 28° 112° (ESE) 1,386 3.8 -32.0°
Drops below altitude 10° 03:32:32 10° 55° (NE) 2,464 5.2 -31.2°
Sets 03:35:33 0° 45° (NE) 3,541 6.0 -30.6°
